Vorticity
6 5 8 6 5 7 -0 3 3 -3 -2 -5 3 0 0 -1 -1 1 1 1 -2 -4 -8 5 0 7 6 4 4 5 6 7 8 8 6 3 3 5 7 4 4 5 4 3 5 6 6 8 10
5 5 5 5 5 4 5 4 -1 2 1 -1 -1 0 3 -2 3 8 8 -1 4 2 6 -0 -0 7 7 5 4 2 3 2 6 9 7 5 6 4 8 4 3 5 4 5 4 6 9 17 19
4 7 6 5 0 4 -0 -0 2 1 2 -1 4 -0 1 4 0 7 4 -2 9 3 -2 -1 8 4 3 6 -0 -0 2 4 5 6 8 7 7 5 5 9 5 3 5 5 7 9 11 11 9
4 6 7 5 1 6 2 0 1 2 5 0 6 -5 1 -6 -2 11 16 17 19 5 2 -6 8 2 1 -8 -7 5 3 3 4 9 9 8 8 7 3 8 9 4 7 6 9 12 11 7 7
4 -7 3 8 0 -7 -0 2 3 6 2 -0 -1 -1 1 2 9 -3 6 3 25 8 -6 -0 7 2 7 -6 -9 2 9 -1 7 7 7 8 8 8 1 2 11 8 7 7 10 12 12 10 6
6 4 -2 3 -5 -3 6 5 4 -0 -3 -2 1 2 2 3 2 13 -1 5 8 3 -10 7 10 8 9 -8 -20 -0 6 1 6 7 7 8 7 6 6 -0 3 13 7 6 8 11 11 10 9
4 9 10 9 -1 13 3 3 5 -1 -4 -3 1 -3 1 9 14 9 10 9 0 -4 -2 8 7 12 6 3 -13 3 3 2 8 6 9 6 6 6 4 3 1 10 8 8 9 12 12 9 9
4 3 1 10 4 9 2 4 2 5 6 -11 -8 -17 -4 1 -13 -19 -10 7 6 -4 2 -4 10 -15 2 4 6 2 7 2 7 6 8 7 5 6 6 6 7 10 9 8 9 9 6 11 9
3 3 3 -2 -1 11 11 -3 -3 -7 0 6 -6 0 7 -2 7 6 8 16 -4 3 5 3 2 2 -3 3 1 3 3 3 21 12 7 9 3 6 4 4 4 9 9 6 9 9 5 9 10
3 3 0 4 3 4 11 -4 12 5 1 -3 3 9 31 17 8 10 8 8 -6 2 3 4 -1 2 -3 -2 3 2 4 6 27 9 8 10 -0 0 2 3 3 8 10 7 9 8 5 11 11
4 4 4 1 3 2 -0 4 2 -2 1 21 -16 -11 -6 -2 1 3 6 9 -4 -2 7 -3 -9 1 2 -4 2 2 2 9 25 11 10 5 2 -2 1 2 2 9 11 5 8 6 2 9 10
2 4 4 7 -7 -2 11 8 3 1 -6 1 -7 -4 -9 15 12 8 5 16 7 5 6 -0 -9 -1 5 3 2 2 3 19 26 8 12 7 1 8 6 2 6 11 11 6 9 4 -1 9 9
12 5 6 -2 -9 -0 -1 6 5 2 1 -3 -1 -4 8 -7 7 15 15 -3 11 11 8 -0 4 3 6 4 2 9 15 23 14 3 4 -0 14 4 6 7 6 7 6 3 3 2 5 7 8
-3 -7 2 -0 -6 -1 0 0 4 -6 -1 4 11 13 3 7 4 11 12 7 6 16 -4 3 4 3 3 4 3 15 25 12 7 2 2 4 2 9 12 5 4 8 1 4 -6 5 3 5 10
7 10 -7 -7 -5 10 5 14 5 3 5 8 2 -1 3 21 15 10 9 -3 1 3 6 5 4 3 5 8 17 21 1 6 17 11 -4 2 15 11 18 8 3 9 7 -2 0 0 9 8 8
21 23 -5 11 7 2 0 15 3 -1 -1 2 -1 2 9 9 2 15 13 10 10 6 2 9 -1 4 8 15 13 9 3 -1 14 8 5 3 17 7 15 5 4 10 3 0 12 5 7 8 6
6 10 8 12 16 -4 -7 -0 -1 2 11 13 18 16 13 5 6 6 3 2 3 4 1 3 6 9 13 10 6 6 10 4 9 15 8 -3 5 9 10 4 11 4 5 25 0 6 9 6 11
10 14 12 7 14 23 8 6 10 15 12 13 10 7 13 14 17 8 1 2 8 10 4 16 20 11 12 4 4 -0 3 4 10 12 0 1 7 17 9 2 8 10 8 11 6 9 7 11 12
11 7 8 11 11 7 8 8 7 5 7 9 9 9 7 13 18 11 10 13 14 12 13 10 5 4 2 6 4 8 17 15 14 9 5 6 14 11 -3 4 8 20 3 13 11 8 9 12 11
7 10 8 6 9 14 13 13 9 6 5 4 5 9 7 4 7 9 10 9 10 11 10 6 5 6 9 11 19 22 16 10 9 5 10 11 17 7 4 9 5 -0 15 11 7 9 12 11 9
6 4 8 8 6 6 10 13 13 10 12 14 12 11 9 9 9 13 16 15 13 12 9 5 9 10 10 11 13 8 14 12 17 14 5 11 7 6 7 9 4 14 13 5 7 14 12 9 10
6 6 6 6 8 7 6 18 9 10 9 12 11 9 11 7 11 20 18 16 11 9 10 13 9 10 11 9 20 20 15 14 17 8 12 13 5 14 4 6 17 12 6 6 16 12 10 13 6
9 9 7 6 7 8 6 6 16 12 15 13 16 15 11 12 12 15 9 11 12 12 7 10 6 6 8 21 16 14 12 8 14 14 12 5 2 11 5 14 11 6 7 11 14 9 12 5 5
16 9 12 9 7 8 10 6 13 17 24 13 12 7 11 9 17 11 16 12 7 6 16 10 11 14 17 16 11 10 9 12 6 7 4 13 9 5 16 10 7 8 13 15 7 9 8 11 14
12 11 4 12 12 10 8 6 8 25 21 7 7 8 5 7 13 8 13 6 7 10 18 12 22 17 15 10 11 13 7 3 5 13 8 9 11 13 13 7 8 18 13 10 8 13 -1 13 18
30 17 14 13 3 8 8 7 1 12 -21 18 40 18 6 18 15 8 7 9 8 19 8 15 15 12 12 9 10 8 7 6 9 11 12 12 12 11 10 9 15 14 9 11 12 14 -3 11 18
22 18 21 20 19 3 5 4 7 -2 3 15 4 19 13 13 8 3 5 11 14 4 9 9 6 11 3 9 9 8 7 10 13 18 13 14 6 12 10 15 12 8 12 12 13 8 15 9 15
20 25 11 14 18 15 7 5 2 1 14 -20 15 1 15 10 5 12 8 12 8 12 18 6 6 10 10 7 8 10 13 17 13 13 8 6 11 13 12 13 12 13 12 11 5 13 13 11 13
29 16 14 8 12 11 12 3 1 1 -4 39 -11 8 9 2 11 10 1 11 5 17 10 10 11 8 9 14 14 16 11 13 10 7 18 10 15 12 9 12 14 13 14 8 9 4 15 16 8
9 27 16 18 10 13 12 12 7 4 -1 23 15 -1 2 12 5 -2 14 13 10 16 14 9 7 12 12 17 11 11 11 5 4 10 12 9 12 4 9 15 11 8 9 8 8 7 12 15 10
Height
5863 5865 5867 5869 5873 5872 5871 5874 5875 5875 5875 5876 5877 5877 5878 5880 5883 5885 5884 5884 5885 5886 5885 5885 5885 5881 5881 5878 5876 5876 5874 5872 5869 5867 5865 5863 5860 5858 5856 5853 5852 5849 5847 5844 5843 5843 5842 5840 5837
5860 5862 5863 5865 5869 5869 5869 5871 5872 5873 5874 5874 5874 5875 5876 5877 5878 5879 5881 5882 5883 5883 5884 5884 5882 5880 5879 5877 5875 5874 5873 5870 5868 5865 5863 5861 5858 5856 5852 5850 5848 5847 5844 5842 5839 5837 5834 5833 5832
5856 5858 5860 5861 5864 5868 5867 5868 5868 5871 5872 5872 5872 5873 5874 5874 5875 5875 5876 5877 5879 5879 5882 5882 5879 5877 5876 5875 5874 5872 5870 5868 5866 5864 5860 5857 5854 5852 5849 5847 5846 5844 5841 5839 5836 5833 5831 5829 5828
5851 5854 5857 5858 5863 5864 5865 5866 5866 5867 5868 5869 5869 5871 5872 5874 5874 5873 5872 5872 5873 5875 5878 5879 5876 5874 5873 5871 5870 5868 5864 5863 5861 5859 5857 5853 5851 5849 5846 5845 5843 5841 5838 5835 5832 5829 5827 5825 5823
5844 5849 5851 5856 5860 5862 5863 5863 5862 5864 5865 5866 5866 5868 5871 5872 5872 5870 5869 5868 5866 5871 5875 5876 5874 5872 5871 5868 5865 5864 5861 5858 5856 5853 5851 5848 5846 5844 5842 5840 5838 5836 5834 5832 5829 5825 5823 5821 5819
5837 5841 5846 5853 5854 5856 5857 5859 5858 5860 5860 5863 5864 5866 5866 5868 5869 5865 5866 5866 5864 5869 5873 5872 5870 5868 5866 5865 5863 5860 5858 5855 5852 5850 5846 5842 5840 5839 5837 5835 5833 5830 5829 5827 5824 5821 5818 5816 5813
5831 5833 5839 5843 5845 5848 5851 5852 5851 5855 5856 5859 5861 5864 5864 5862 5862 5861 5861 5861 5861 5865 5868 5867 5865 5863 5863 5863 5861 5858 5856 5852 5848 5845 5843 5839 5837 5836 5834 5831 5829 5826 5823 5821 5819 5817 5815 5812 5809
5824 5826 5830 5834 5837 5843 5844 5845 5847 5851 5851 5855 5857 5859 5859 5857 5856 5858 5858 5856 5857 5859 5861 5861 5860 5858 5857 5857 5858 5855 5852 5849 5845 5841 5839 5837 5834 5832 5830 5827 5824 5821 5818 5816 5814 5812 5810 5808 5805
5813 5815 5822 5829 5832 5837 5839 5840 5844 5844 5844 5847 5850 5852 5852 5853 5851 5850 5851 5851 5851 5849 5850 5852 5852 5851 5849 5847 5846 5845 5841 5841 5841 5838 5835 5833 5830 5827 5824 5822 5819 5816 5813 5810 5808 5806 5805 5802 5800
5803 5805 5815 5826 5825 5828 5829 5833 5838 5839 5839 5841 5844 5850 5847 5848 5846 5846 5848 5848 5846 5844 5843 5844 5844 5844 5842 5840 5839 5839 5837 5834 5833 5831 5829 5828 5825 5822 5819 5816 5814 5811 5808 5805 5803 5800 5799 5797 5795
5794 5796 5810 5817 5816 5817 5818 5823 5827 5831 5833 5840 5840 5840 5840 5838 5840 5841 5842 5842 5841 5841 5840 5839 5838 5836 5837 5835 5833 5833 5832 5829 5827 5825 5823 5821 5819 5817 5814 5812 5809 5806 5803 5800 5798 5795 5793 5791 5788
5782 5789 5796 5805 5803 5804 5809 5814 5816 5822 5828 5831 5834 5835 5834 5833 5834 5833 5832 5836 5836 5836 5836 5834 5832 5830 5828 5826 5826 5825 5824 5822 5820 5819 5817 5815 5813 5811 5808 5805 5803 5800 5798 5795 5793 5790 5788 5785 5782
5770 5779 5781 5788 5791 5794 5796 5802 5806 5811 5818 5822 5825 5826 5828 5828 5827 5828 5826 5827 5829 5828 5828 5827 5824 5823 5822 5819 5819 5819 5818 5815 5814 5813 5812 5809 5807 5806 5802 5800 5798 5795 5792 5790 5787 5784 5781 5779 5775
5763 5765 5766 5770 5780 5782 5784 5791 5794 5804 5809 5814 5816 5818 5819 5821 5821 5820 5821 5824 5822 5820 5821 5820 5819 5817 5814 5813 5812 5813 5811 5809 5807 5807 5805 5801 5800 5800 5797 5793 5792 5790 5786 5784 5781 5778 5775 5772 5769
5746 5749 5751 5758 5765 5772 5776 5778 5783 5796 5801 5802 5805 5807 5808 5811 5811 5812 5816 5817 5816 5817 5815 5813 5812 5807 5806 5806 5806 5805 5803 5801 5801 5800 5798 5797 5792 5793 5790 5788 5785 5781 5777 5776 5775 5772 5768 5765 5761
5729 5735 5738 5751 5754 5760 5763 5768 5783 5785 5786 5793 5796 5794 5793 5797 5803 5804 5806 5807 5810 5807 5805 5805 5803 5800 5800 5799 5799 5797 5795 5794 5793 5793 5791 5790 5786 5784 5782 5781 5778 5774 5769 5769 5768 5764 5761 5757 5753
5714 5722 5729 5736 5743 5743 5750 5755 5764 5772 5776 5779 5781 5783 5784 5787 5789 5794 5796 5796 5795 5795 5796 5796 5795 5795 5793 5791 5790 5788 5787 5786 5786 5785 5784 5781 5780 5778 5776 5774 5771 5769 5766 5763 5761 5757 5753 5750 5746
5708 5712 5714 5718 5726 5730 5735 5742 5751 5759 5762 5765 5769 5773 5776 5779 5781 5784 5784 5786 5787 5787 5787 5789 5788 5786 5783 5783 5781 5780 5780 5780 5780 5778 5775 5774 5773 5770 5769 5767 5765 5763 5760 5756 5753 5750 5746 5742 5738
5689 5693 5698 5704 5711 5722 5728 5730 5741 5743 5752 5756 5762 5766 5768 5770 5773 5774 5775 5776 5778 5778 5779 5779 5776 5775 5774 5773 5773 5773 5772 5772 5770 5769 5767 5767 5765 5764 5763 5761 5760 5755 5753 5750 5746 5743 5739 5735 5731
5672 5677 5685 5693 5701 5709 5718 5718 5727 5734 5740 5747 5752 5756 5758 5761 5763 5764 5765 5767 5768 5768 5769 5768 5769 5767 5766 5766 5766 5765 5763 5762 5760 5760 5759 5759 5758 5756 5757 5754 5752 5749 5747 5743 5739 5735 5731 5727 5724
5656 5662 5673 5682 5689 5701 5704 5703 5714 5728 5731 5740 5743 5748 5751 5753 5754 5755 5756 5757 5758 5759 5760 5760 5760 5760 5759 5758 5757 5755 5755 5754 5753 5753 5753 5752 5752 5750 5749 5749 5747 5744 5740 5736 5732 5728 5725 5720 5717
5637 5650 5661 5668 5680 5688 5693 5687 5706 5722 5725 5730 5734 5738 5743 5742 5743 5746 5746 5748 5751 5751 5751 5753 5753 5752 5750 5749 5748 5747 5747 5746 5746 5745 5746 5747 5745 5744 5744 5743 5741 5737 5733 5729 5725 5723 5719 5715 5712
5627 5636 5650 5655 5666 5675 5683 5683 5708 5714 5717 5723 5727 5730 5730 5731 5734 5737 5739 5742 5743 5744 5744 5745 5744 5742 5741 5741 5741 5741 5741 5740 5741 5741 5741 5741 5740 5738 5739 5737 5734 5729 5726 5722 5721 5717 5714 5710 5706
5613 5622 5634 5643 5654 5655 5681 5680 5697 5704 5711 5714 5718 5719 5722 5725 5728 5732 5734 5736 5736 5737 5737 5737 5736 5735 5735 5736 5736 5735 5735 5735 5736 5736 5736 5735 5734 5732 5732 5729 5726 5723 5720 5718 5714 5712 5709 5706 5701
5598 5609 5621 5632 5636 5658 5673 5672 5694 5698 5697 5704 5710 5713 5715 5719 5724 5725 5729 5730 5731 5732 5731 5730 5729 5729 5730 5730 5730 5731 5730 5730 5730 5730 5729 5730 5729 5727 5726 5723 5720 5717 5714 5712 5710 5707 5706 5702 5697
5591 5600 5611 5621 5635 5657 5662 5669 5680 5693 5696 5699 5702 5704 5710 5715 5719 5722 5723 5724 5725 5726 5725 5725 5724 5724 5725 5725 5725 5725 5726 5725 5724 5725 5724 5722 5722 5721 5720 5716 5713 5711 5709 5707 5706 5705 5702 5698 5695
5583 5591 5608 5612 5626 5643 5651 5668 5674 5683 5690 5693 5697 5699 5704 5709 5713 5715 5718 5720 5720 5720 5721 5721 5720 5721 5721 5721 5721 5721 5721 5721 5719 5718 5717 5716 5716 5714 5712 5710 5708 5706 5705 5704 5703 5701 5698 5695 5693
5579 5588 5594 5602 5619 5634 5650 5659 5663 5674 5683 5686 5692 5698 5701 5705 5707 5710 5713 5715 5715 5716 5716 5716 5716 5717 5717 5716 5716 5716 5716 5715 5714 5713 5712 5711 5710 5709 5707 5705 5704 5703 5702 5701 5700 5697 5694 5693 5690
5574 5578 5586 5598 5612 5627 5642 5649 5654 5666 5674 5681 5688 5695 5697 5700 5703 5706 5709 5711 5712 5711 5711 5712 5713 5713 5713 5713 5713 5712 5711 5710 5709 5708 5707 5707 5706 5705 5703 5702 5701 5700 5699 5698 5696 5694 5692 5690 5689
5567 5572 5579 5589 5605 5619 5630 5640 5646 5660 5667 5675 5683 5690 5692 5695 5700 5703 5706 5707 5707 5707 5708 5709 5710 5710 5710 5710 5710 5709 5707 5706 5705 5704 5704 5704 5703 5702 5701 5699 5699 5698 5696 5695 5693 5691 5690 5689 5689